Date String (YYYY-MM-DD hh:mm:ss) UTC,Instrument flags,absolute air pressure of the measurement (hPa),sample flow rate (lpm),inlet stack bypass flow (lpm),air temperature of the measurement (°C),ambient temperature measured by the external sensor (°C),aerosol sample conditioner tube jacket temperature (°C),OPC LED temperature (°C),internal box temperature (°C),relative humidity of the measurement (%),span deviation,mass concentration of particles derived from Lorenz-Mie calculation of OPC scattering (μg/m³),mass concentration of particles derived from Lorenz-Mie calculation of OPC scattering (μg/m³),mass concentration of particles derived from Lorenz-Mie calculation of OPC scattering (μg/m³)
DateTimeUTC,F1_M11,P_M11,Q1_M11,Q2_M11,T1_M11,T2_M11,T3_M11,T4_M11,T5_M11,U1_M11,ZSPAN_M11,X0_M11,X2_M11,X1_M11
2024-06-18 13:00:00,SystemResetWarning,0823.2,5.00,000.00,028.2,027.3,000.0,037.0,030.0,013.9,0000.0,0037.29,0005.60,0002.28
2024-06-18 13:01:00,SystemResetWarning,0823.2,5.01,000.00,028.2,027.3,000.0,037.0,030.1,014.1,0000.0,0037.43,0005.51,0002.28
2024-06-18 13:02:00,SystemResetWarning,0823.3,5.00,000.00,028.2,027.3,000.0,037.0,030.0,014.3,0000.0,0037.31,0005.51,0002.27
2024-06-18 13:03:00,SystemResetWarning,0823.3,5.01,000.00,028.2,027.3,000.0,037.0,030.0,014.1,0000.0,0035.63,0005.51,0002.26
2024-06-18 13:04:00,SystemResetWarning,0823.3,5.01,000.00,028.2,027.3,000.0,037.0,030.0,014.3,0000.0,0035.12,0005.45,0002.23
2024-06-18 13:05:00,SystemResetWarning,0823.2,5.00,000.00,028.2,027.3,000.0,037.0,030.0,014.1,0000.0,0033.51,0005.36,0002.20
2024-06-18 13:06:00,SystemResetWarning,0823.2,5.00,000.00,028.2,027.3,000.0,037.0,030.0,014.3,0000.0,0033.26,0005.33,0002.19
2024-06-18 13:07:00,SystemResetWarning,0823.2,5.01,000.00,028.2,027.3,000.0,036.9,030.0,014.2,0000.0,0035.44,0005.31,0002.16
2024-06-18 13:08:00,SystemResetWarning,0823.2,5.00,000.00,028.2,027.3,000.0,036.9,030.0,014.1,0000.0,0038.27,0005.32,0002.12
2024-06-18 13:09:00,SystemResetWarning,0823.2,4.99,000.00,028.2,027.2,000.0,036.9,030.0,013.6,0000.0,0040.20,0005.39,0002.09
2024-06-18 13:10:00,SystemResetWarning,0823.3,5.00,000.00,028.1,027.2,000.0,036.9,029.9,013.6,0000.0,0039.86,0005.37,0002.06
2024-06-18 13:11:00,SystemResetWarning,0823.3,5.01,000.00,028.1,027.2,000.0,036.9,029.9,013.6,0000.0,0038.32,0005.29,0002.03
2024-06-18 13:12:00,SystemResetWarning,0823.2,5.00,000.00,028.1,027.1,000.0,036.9,029.9,014.0,0000.0,0038.46,0005.28,0002.00
2024-06-18 13:13:00,SystemResetWarning,0823.1,5.00,000.00,028.1,027.1,000.0,036.9,029.8,013.7,0000.0,0038.31,0005.27,0001.97
2024-06-18 13:14:00,SystemResetWarning,0823.0,4.99,000.00,028.1,027.1,000.0,036.8,029.8,013.7,0000.0,0037.07,0005.22,0001.94
2024-06-18 13:15:00,SystemResetWarning,0823.0,4.99,000.00,028.0,027.1,000.0,036.8,029.8,013.6,0000.0,0037.47,0005.17,0001.92
2024-06-18 13:16:00,SystemResetWarning,0823.0,5.00,000.00,028.0,027.1,000.0,036.8,029.8,014.1,0000.0,0037.25,0005.13,0001.91
2024-06-18 13:17:00,SystemResetWarning,0823.0,5.01,000.00,028.0,027.0,000.0,036.8,029.8,014.0,0000.0,0035.99,0005.15,0001.91
2024-06-18 13:18:00,SystemResetWarning,0823.1,5.01,000.00,028.0,027.0,000.0,036.8,029.8,013.8,0000.0,0034.82,0005.14,0001.89
2024-06-18 13:19:00,SystemResetWarning,0823.0,5.00,000.00,028.0,027.0,000.0,036.8,029.8,013.9,0000.0,0033.07,0005.05,0001.87
2024-06-18 13:20:00,SystemResetWarning,0823.0,4.99,000.00,028.0,027.0,000.0,036.8,029.8,014.3,0000.0,0032.03,0004.97,0001.85
2024-06-18 13:21:00,SystemResetWarning,0823.0,5.00,000.00,028.0,027.0,000.0,036.8,029.8,014.2,0000.0,0031.35,0004.94,0001.87
2024-06-18 13:22:00,SystemResetWarning,0823.1,4.99,000.00,027.9,027.0,000.0,036.7,029.8,013.9,0000.0,0031.68,0004.89,0001.87
2024-06-18 13:23:00,SystemResetWarning,0823.1,5.00,000.00,027.9,027.0,000.0,036.7,029.7,013.9,0000.0,0031.11,0004.90,0001.86
2024-06-18 13:24:00,SystemResetWarning,0823.1,5.01,000.00,027.9,027.0,000.0,036.7,029.7,013.8,0000.0,0032.73,0004.87,0001.85
2024-06-18 13:25:00,SystemResetWarning,0823.0,5.01,000.00,027.9,026.9,000.0,036.7,029.7,014.0,0000.0,0032.82,0004.87,0001.86
2024-06-18 13:26:00,SystemResetWarning,0823.1,5.00,000.00,027.9,026.9,000.0,036.7,029.7,013.9,0000.0,0032.19,0004.91,0001.86
2024-06-18 13:27:00,SystemResetWarning,0823.2,5.00,000.00,027.8,026.9,000.0,036.7,029.6,013.9,0000.0,0032.19,0004.94,0001.86
2024-06-18 13:28:00,SystemResetWarning,0823.2,5.00,000.00,027.8,026.8,000.0,036.6,029.6,014.0,0000.0,0032.92,0004.94,0001.85
2024-06-18 13:29:00,SystemResetWarning,0823.2,4.99,000.00,027.8,026.8,000.0,036.6,029.5,014.1,0000.0,0034.42,0005.00,0001.86
2024-06-18 13:30:00,SystemResetWarning,0823.2,5.00,000.00,027.8,026.8,000.0,036.6,029.6,014.2,0000.0,0034.23,0005.02,0001.90
2024-06-18 13:31:00,SystemResetWarning,0823.3,4.99,000.00,027.8,026.8,000.0,036.6,029.5,014.2,0000.0,0034.80,0005.03,0001.91
2024-06-18 13:32:00,SystemResetWarning,0823.3,5.01,000.00,027.7,026.8,000.0,036.6,029.5,014.1,0000.0,0035.57,0005.04,0001.92
2024-06-18 13:33:00,SystemResetWarning,0823.3,5.01,000.00,027.7,026.7,000.0,036.5,029.5,014.2,0000.0,0035.46,0005.12,0001.94
2024-06-18 13:34:00,SystemResetWarning,0823.3,5.01,000.00,027.7,026.7,000.0,036.5,029.5,014.2,0000.0,0034.59,0005.12,0001.96
2024-06-18 13:35:00,SystemResetWarning,0823.4,5.00,000.00,027.7,026.7,000.0,036.5,029.5,014.3,0000.0,0033.44,0005.11,0001.97
2024-06-18 13:36:00,SystemResetWarning,0823.4,5.00,000.00,027.7,026.7,000.0,036.5,029.5,014.4,0000.0,0033.38,0005.22,0001.99
2024-06-18 13:37:00,SystemResetWarning,0823.4,4.99,000.00,027.6,026.7,000.0,036.5,029.5,014.5,0000.0,0033.18,0005.24,0001.98
2024-06-18 13:38:00,SystemResetWarning,0823.4,4.99,000.00,027.6,026.7,000.0,036.5,029.5,014.4,0000.0,0035.61,0005.27,0001.99
2024-06-18 13:39:00,SystemResetWarning,0823.4,4.99,000.00,027.6,026.7,000.0,036.4,029.4,014.1,0000.0,0037.33,0005.32,0002.00
2024-06-18 13:40:00,SystemResetWarning,0823.4,4.99,000.00,027.6,026.6,000.0,036.4,029.4,014.2,0000.0,0036.35,0005.36,0002.00
2024-06-18 13:41:00,SystemResetWarning,0823.4,5.01,000.00,027.6,026.6,000.0,036.4,029.4,014.4,0000.0,0035.82,0005.38,0001.99
2024-06-18 13:42:00,SystemResetWarning,0823.4,5.00,000.00,027.6,026.6,000.0,036.4,029.4,014.4,0000.0,0037.36,0005.46,0002.00
2024-06-18 13:43:00,SystemResetWarning,0823.4,5.00,000.00,027.6,026.6,000.0,036.4,029.4,014.1,0000.0,0037.24,0005.55,0001.98
2024-06-18 13:44:00,SystemResetWarning,0823.4,4.99,000.00,027.5,026.6,000.0,036.4,029.4,014.4,0000.0,0038.38,0005.56,0001.96
2024-06-18 13:45:00,SystemResetWarning,0823.4,5.00,000.00,027.5,026.6,000.0,036.3,029.3,014.5,0000.0,0039.38,0005.61,0001.96
2024-06-18 13:46:00,SystemResetWarning,0823.4,5.00,000.00,027.5,026.5,000.0,036.3,029.3,014.5,0000.0,0039.35,0005.63,0001.95
2024-06-18 13:47:00,SystemResetWarning,0823.5,4.99,000.00,027.5,026.5,000.0,036.3,029.3,014.7,0000.0,0041.29,0005.62,0001.95
2024-06-18 13:48:00,SystemResetWarning,0823.5,5.01,000.00,027.5,026.5,000.0,036.3,029.3,014.7,0000.0,0043.25,0005.60,0001.97
2024-06-18 13:49:00,SystemResetWarning,0823.5,5.01,000.00,027.4,026.5,000.0,036.3,029.2,015.0,0000.0,0039.95,0005.58,0001.97
2024-06-18 13:50:00,SystemResetWarning,0823.5,5.00,000.00,027.4,026.5,000.0,036.2,029.2,015.2,0000.0,0039.70,0005.65,0001.97
2024-06-18 13:51:00,SystemResetWarning,0823.5,4.99,000.00,027.4,026.4,000.0,036.2,029.3,015.2,0000.0,0038.38,0005.62,0001.96
2024-06-18 13:52:00,SystemResetWarning,0823.6,5.00,000.00,027.4,026.5,000.0,036.2,029.3,015.0,0000.0,0039.03,0005.60,0001.96
2024-06-18 13:53:00,SystemResetWarning,0823.6,5.01,000.00,027.4,026.5,000.0,036.2,029.2,015.3,0000.0,0039.03,0005.52,0001.95
2024-06-18 13:54:00,SystemResetWarning,0823.6,5.00,000.00,027.4,026.5,000.0,036.2,029.3,015.0,0000.0,0039.59,0005.42,0001.95
2024-06-18 13:55:00,SystemResetWarning,0823.6,5.01,000.00,027.4,026.5,000.0,036.2,029.3,015.0,0000.0,0038.72,0005.41,0001.93
2024-06-18 13:56:00,SystemResetWarning,0823.6,5.00,000.00,027.4,026.5,000.0,036.2,029.3,015.1,0000.0,0040.25,0005.42,0001.91
2024-06-18 13:57:00,SystemResetWarning,0823.6,5.00,000.00,027.4,026.6,000.0,036.2,029.3,015.1,0000.0,0039.77,0005.43,0001.92
2024-06-18 13:58:00,SystemResetWarning,0823.6,5.00,000.00,027.4,026.6,000.0,036.2,029.3,015.2,0000.0,0038.77,0005.55,0001.91
2024-06-18 13:59:00,SystemResetWarning,0823.6,5.00,000.00,027.4,026.6,000.0,036.2,029.3,015.5,0000.0,0039.46,0005.61,0001.91
